Location: Fontevrault
(47.1823°N, 0.0493°E)
Time: 08:45:10
(UTC+00:00)

Meteor 2-20 - Pass Details

Date: 16 June 2021
Orbit: 939 x 958 km, 82.5° (Epoch: 01 August)

Event Time Altitude Azimuth Distance (km) Brightness Sun altitude
Rises 20:40:27 0° 180° (S) 3,609 7.1 -6.3°
Reaches altitude 10° 20:42:57 10° 179° (S) 2,665 6.4 -6.6°
Maximum altitude 20:49:00 73° 96° (E) 991 4.5 -7.3°
Drops below altitude 10° 20:55:05 10° 13° (NNE) 2,671 7.3 -8.0°
Sets 20:57:35 0° 12° (NNE) 3,618 8.1 -8.3°
